Regional Weather Roundup
Issued by NWS

Home | Current Version | Previous Version | Text Only | Print | Product List | Glossary On
Versions: 1 2 3 4 5 6 7 8 9 10 11 12 13 14 15 16 17 18 19 20 21 22 23 24 25 26 27 28 29 30 31 32 33 34 35 36 37 38 39 40 41 42 43 44 45 46 47 48 49 50
000
ASUS43 KLSX 262259
RWRMO

WEATHER SUMMARY FOR MISSOURI
NATIONAL WEATHER SERVICE SPRINGFIELD MO
500 PM CST THU FEB 26 2015

NOTE: "FAIR" INDICATES FEW OR NO CLOUDS BELOW 12,000 FEET WITH NO
       SIGNIFICANT WEATHER AND/OR OBSTRUCTIONS TO VISIBILITY.
       CURRENT SKY AND/OR WEATHER CONDITIONS ARE NOT AVAILABLE FOR
       CHILLICOTHE AND FARMINGTON.

MOZ001>031-035>038-043-044-053-054-270000-
...NORTHERN AND WESTERN MISSOURI...

CITY           SKY/WX    TMP DP  RH WIND       PRES   REMARKS
KANSAS CTY INT MOSUNNY   17   0  47 N15       30.45R WCI   2
KANSAS C DTWN  MOSUNNY   20   0  41 N10       30.46S WCI   9
LEE`S SUMMIT   SUNNY     19   1  45 N16       30.44R WCI   4
ST JOSEPH      SUNNY     16  -2  45 N15       30.51R WCI   1
CHILLICOTHE      N/A     15   0  51 N8G17     30.48R WCI   4
KIRKSVILLE     CLEAR     13  -2  51 N10       30.43R WCI   0

$$
MOZ066>068-077>081-088>096-101>105-270000-
...SOUTHWEST MISSOURI...

CITY           SKY/WX    TMP DP  RH WIND       PRES   REMARKS
SPRINGFIELD    SUNNY     25   5  42 N17       30.33R WCI  12
JOPLIN         SUNNY     25   2  37 N13G20    30.39R WCI  14

$$
MOZ032>034-039>042-045>050-055>058-069>072-270000-
...CENTRAL MISSOURI...

CITY           SKY/WX    TMP DP  RH WIND       PRES   REMARKS
COLUMBIA       PTSUNNY   20   3  48 NW15      30.38R WCI   6
JEFFERSON CITY MOSUNNY   23   3  42 NW10      30.41R WCI  12
ROLLA          CLOUDY    20   7  57 N12       30.32R WCI   8
SEDALIA        SUNNY     20   3  48 N20       30.43R WCI   4
OSAGE BEACH    SUNNY     23   1  39 NW9       30.38R WCI  13

$$
MOZ051-052-059>065-270000-
...EAST CENTRAL MISSOURI...

CITY           SKY/WX    TMP DP  RH WIND       PRES   REMARKS
ST LOUIS INTL  FLURRIES  21  10  62 NW13G22   30.36R WCI   9
SPIRIT OF STL  MOCLDY    21   7  54 N12       30.37R WCI   9
ST CHARLES     CLOUDY    20   9  62 N15       30.38R WCI   6

$$
MOZ072>076-082>087-097>100-106>115-270000-
...SOUTH CENTRAL AND SOUTHEAST MISSOURI...

CITY           SKY/WX    TMP DP  RH WIND       PRES   REMARKS
CAPE GIRARDEAU CLOUDY    26  16  65 N18       30.31R WCI  13
FARMINGTON     CLOUDY    21  12  68 NW10      30.33R WCI  10
POPLAR BLUFF   CLOUDY    28  14  55 N15       30.30R WCI  16
WEST PLAINS    PTSUNNY   22  10  60 N9        30.31R WCI  12

$$


USA.gov is the U.S. government's official web portal to all federal, state and local government web resources and services.